TimeCEST,TemperatureF,Dew PointF,Humidity,Sea Level PressureIn,VisibilityMPH,Wind Direction,Wind SpeedMPH,Gust SpeedMPH,PrecipitationIn,Events,Conditions,WindDirDegrees,DateUTC
12:55 AM,77.0,64.4,65,30.12,-9999.0,NE,15.0,33.4,N/A,,Clear,50,2013-07-08 22:55:00
1:55 AM,77.0,62.6,61,30.12,-9999.0,ENE,18.4,40.3,N/A,,Clear,60,2013-07-08 23:55:00
2:00 AM,77,62,51,30.13,12,ENE,18.4,,,,,60,2013-07-09 00:00:00
2:55 AM,77.0,62.6,61,30.12,-9999.0,ENE,17.3,36.8,N/A,,Clear,60,2013-07-09 00:55:00
3:55 AM,75.2,60.8,61,30.09,-9999.0,ENE,18.4,43.7,N/A,,Clear,60,2013-07-09 01:55:00
4:55 AM,75.2,60.8,61,30.09,-9999.0,ENE,19.6,41.4,N/A,,Clear,60,2013-07-09 02:55:00
5:55 AM,75.2,59.0,57,30.09,-9999.0,NE,13.8,33.4,N/A,,Clear,50,2013-07-09 03:55:00
6:55 AM,73.4,59.0,61,30.09,-9999.0,NE,13.8,32.2,N/A,,Clear,40,2013-07-09 04:55:00
7:55 AM,77.0,60.8,57,30.09,-9999.0,ENE,13.8,28.8,N/A,,Clear,60,2013-07-09 05:55:00
8:00 AM,77,60,46,30.12,12,ENE,13.8,,,,,60,2013-07-09 06:00:00
8:55 AM,80.6,60.8,51,30.09,-9999.0,NE,13.8,33.4,N/A,,Clear,50,2013-07-09 06:55:00
9:55 AM,82.4,62.6,51,30.09,-9999.0,ENE,13.8,28.8,N/A,,Clear,60,2013-07-09 07:55:00
10:55 AM,84.2,62.6,48,30.09,-9999.0,ENE,11.5,-,N/A,,Clear,60,2013-07-09 08:55:00
11:55 AM,86.0,62.6,45,30.06,6.2,ENE,9.2,-,N/A,,Partly Cloudy,60,2013-07-09 09:55:00
12:55 PM,87.8,62.6,43,30.06,6.2,East,9.2,-,N/A,,Partly Cloudy,90,2013-07-09 10:55:00
1:55 PM,89.6,64.4,43,30.04,6.2,NNW,4.6,-,N/A,,Scattered Clouds,330,2013-07-09 11:55:00
2:00 PM,90,64,31,30.06,12,NNW,4.6,,,,Partly Cloudy,330,2013-07-09 12:00:00
2:55 PM,89.6,62.6,40,30.04,6.2,NW,6.9,21.9,N/A,,Scattered Clouds,310,2013-07-09 12:55:00
3:55 PM,89.6,62.6,40,30.01,6.2,ENE,6.9,20.7,N/A,,Scattered Clouds,70,2013-07-09 13:55:00
4:55 PM,80.6,69.8,70,29.98,6.2,SE,4.6,-,N/A,,Scattered Clouds,130,2013-07-09 14:55:00
5:55 PM,80.6,69.8,70,29.98,6.2,South,2.3,-,N/A,,Partly Cloudy,180,2013-07-09 15:55:00
6:55 PM,80.6,68.0,65,29.98,6.2,SSW,1.2,-,N/A,,Partly Cloudy,210,2013-07-09 16:55:00
7:55 PM,78.8,68.0,69,29.98,6.2,SSE,1.2,-,N/A,,Partly Cloudy,150,2013-07-09 17:55:00
8:00 PM,78,68,63,29.99,6,SSE,1.2,,,,Scattered Clouds,150,2013-07-09 18:00:00
8:55 PM,75.2,68.0,78,29.98,-9999.0,SSE,2.3,-,N/A,,Clear,150,2013-07-09 18:55:00
9:55 PM,78.8,62.6,57,29.98,6.2,ENE,8.1,-,N/A,Thunderstorm,Thunderstorm,70,2013-07-09 19:55:00
10:55 PM,78.8,62.6,57,29.98,6.2,ENE,10.4,-,N/A,,Partly Cloudy,70,2013-07-09 20:55:00
11:55 PM,77.0,62.6,61,29.98,-9999.0,East,9.2,21.9,N/A,,Clear,80,2013-07-09 21:55:00